DW4657 West Bridgewater MA US current weather conditions

sailwx.info

Wind from 078

Air temperature 17.2° C
Dewpoint 15.4° C

Last reported at 2020-Aug-08 05:09 UTC.
Time now 2020-Aug-08 05:47 UTC

Location: N 42°02' W 071°02'.
View on Google Maps.

See reports from other nearby stations

  
Tides and Currents Weather Stations Pressure Air Temp Water Temp Dewpoint Dewpoint Depression Visibility Wind Speed Wind Dir Waves Ship Positions
date/time (UTC)wind fromknots sea level pressurealtimeterstation pressurevisibilityair tempwater tempwave heightnotes
2020-Aug-08 05:09 078 17.2
2020-Aug-08 04:59 078 17.2
2020-Aug-08 04:49 078 17.2
2020-Aug-08 04:39 078 17.2
2020-Aug-08 04:29 078 16.7
2020-Aug-08 04:19 078 16.7
2020-Aug-08 04:09 078 16.7
2020-Aug-08 04:00 078 17.2
2020-Aug-08 03:49 078 17.2
2020-Aug-08 03:39 078 17.2
2020-Aug-08 03:29 078 17.2
2020-Aug-08 03:19 078 17.2
2020-Aug-08 03:09 078 17.8
2020-Aug-08 02:59 078 17.8
2020-Aug-08 02:49 078 17.8
2020-Aug-08 02:39 078 18.3
2020-Aug-08 02:29 078 18.3
2020-Aug-08 02:19 078 18.3
2020-Aug-08 02:09 078 18.9
2020-Aug-08 01:59 079 18.9
2020-Aug-08 01:49 079 18.9
2020-Aug-08 01:39 078 18.9
2020-Aug-08 01:29 078 19.4
2020-Aug-08 01:19 078 19.4
2020-Aug-08 01:09 061 19.4
2020-Aug-08 00:59 061 20.0
2020-Aug-08 00:49 059 20.0
2020-Aug-08 00:39 083 20.6
2020-Aug-08 00:29 083 20.6
2020-Aug-08 00:19 085 21.1
2020-Aug-08 00:09 080 21.1
2020-Aug-07 23:59 078 21.7
2020-Aug-07 23:49 069 22.2
2020-Aug-07 23:39 068 22.2
2020-Aug-07 23:29 067 22.2
2020-Aug-07 23:19 132 22.8
2020-Aug-07 23:09 120 23.3
2020-Aug-07 22:59 097 23.3
2020-Aug-07 22:49 084 23.9
2020-Aug-07 22:39 144 24.4
2020-Aug-07 22:29 120 24.4
2020-Aug-07 22:19 109 25.0
2020-Aug-07 22:09 134 25.0
2020-Aug-07 22:00 152 2 gusting 4 25.6
2020-Aug-07 21:49 111 1 gusting 5 25.6
2020-Aug-07 21:39 151 0 gusting 5 25.6
2020-Aug-07 21:29 136 0 gusting 3 26.1
2020-Aug-07 21:19 161 1 gusting 5 26.1
2020-Aug-07 21:09 139 0 gusting 5 26.1
2020-Aug-07 20:59 058 26.1
2020-Aug-07 20:49 167 3 gusting 3 25.6
2020-Aug-07 20:39 016 0 gusting 2 25.6
2020-Aug-07 20:29 146 25.6
2020-Aug-07 20:19 168 1 gusting 2 25.6
2020-Aug-07 20:09 158 25.6
2020-Aug-07 19:59 149 2 gusting 4 25.6
2020-Aug-07 19:49 154 3 gusting 3 25.6
2020-Aug-07 19:39 144 25.6
2020-Aug-07 19:29 139 0 gusting 3 25.6
2020-Aug-07 19:19 068 25.6
2020-Aug-07 19:09 282 25.6
2020-Aug-07 19:00 169 25.6
2020-Aug-07 18:49 151 0 gusting 6 25.6
2020-Aug-07 18:39 147 1 gusting 6 26.1
2020-Aug-07 18:29 140 0 gusting 5 26.1
2020-Aug-07 18:19 132 1 gusting 4 26.7
2020-Aug-07 18:09 113 2 gusting 6 26.7
2020-Aug-07 17:59 168 2 gusting 6 27.2
2020-Aug-07 17:49 225 2 gusting 7 27.2
2020-Aug-07 17:39 174 3 gusting 5 27.8
2020-Aug-07 17:29 149 0 gusting 7 27.2
2020-Aug-07 17:19 135 2 gusting 6 27.2
2020-Aug-07 17:09 141 0 gusting 7 27.2
2020-Aug-07 16:59 066 0 gusting 6 27.8
2020-Aug-07 16:49 094 1 gusting 5 27.8
2020-Aug-07 16:39 104 1 gusting 6 27.8
2020-Aug-07 16:29 057 2 gusting 4 28.3
2020-Aug-07 16:19 133 1 gusting 5 27.8
2020-Aug-07 16:09 133 2 gusting 6 27.2
2020-Aug-07 15:59 176 0 gusting 5 27.8
2020-Aug-07 15:49 105 1 gusting 5 27.2
2020-Aug-07 15:39 160 3 gusting 3 27.2
2020-Aug-07 15:29 144 3 gusting 3 26.7
2020-Aug-07 15:19 082 0 gusting 3 25.6
2020-Aug-07 15:09 079 0 gusting 3 25.0
2020-Aug-07 14:59 095 0 gusting 2 25.0
2020-Aug-07 14:49 073 24.4
2020-Aug-07 14:39 083 23.9
2020-Aug-07 14:29 041 23.9
2020-Aug-07 14:19 085 23.9
2020-Aug-07 14:09 130 23.9
2020-Aug-07 13:59 088 22.8
2020-Aug-07 13:49 063 0 gusting 2 22.8
2020-Aug-07 13:39 062 22.2
2020-Aug-07 13:29 082 22.2
2020-Aug-07 13:19 126 0 gusting 1 21.7
2020-Aug-07 13:09 134 21.7
2020-Aug-07 12:59 081 21.7
2020-Aug-07 12:49 093 21.1
2020-Aug-07 12:39 080 21.1
2020-Aug-07 12:29 085 21.1
2020-Aug-07 12:19 087 21.1
2020-Aug-07 12:09 085 0 gusting 1 20.6
2020-Aug-07 11:59 085 20.6
2020-Aug-07 11:49 090 0 gusting 2 20.6
2020-Aug-07 11:39 078 20.0
2020-Aug-07 11:29 078 0 gusting 1 20.0
2020-Aug-07 11:19 083 19.4
2020-Aug-07 11:09 084 18.9
2020-Aug-07 10:59 091 18.3
2020-Aug-07 10:49 090 18.3
2020-Aug-07 10:39 085 17.8
2020-Aug-07 10:29 296 17.2
2020-Aug-07 10:19 296 17.2
2020-Aug-07 10:09 296 17.2
2020-Aug-07 09:59 293 17.2
2020-Aug-07 09:49 293 16.7
2020-Aug-07 09:39 293 16.7
2020-Aug-07 09:29 293 16.7
2020-Aug-07 09:19 293 16.7
2020-Aug-07 09:09 293 16.7
2020-Aug-07 08:59 293 16.7
2020-Aug-07 08:49 293 16.7
2020-Aug-07 08:39 293 16.1
2020-Aug-07 08:29 293 16.1
2020-Aug-07 08:19 293 16.1
2020-Aug-07 08:09 293 16.1
2020-Aug-07 07:59 293 16.1
2020-Aug-07 07:49 293 16.1
2020-Aug-07 07:39 293 16.1
2020-Aug-07 07:29 293 16.1
2020-Aug-07 07:19 293 16.1
2020-Aug-07 07:09 293 16.1
2020-Aug-07 06:59 293 16.1
2020-Aug-07 06:49 293 16.1
2020-Aug-07 06:39 293 16.1
2020-Aug-07 06:29 293 16.7
2020-Aug-07 06:19 293 16.7
2020-Aug-07 06:09 293 16.7
2020-Aug-07 05:59 293 16.7
2020-Aug-07 05:49 293 16.7
2020-Aug-07 05:39 293 16.7
2020-Aug-07 05:29 293 16.7
2020-Aug-07 05:19 293 17.2
2020-Aug-07 05:09 293 17.2
2020-Aug-07 04:59 293 17.2
2020-Aug-07 04:49 293 17.2
2020-Aug-07 04:39 293 17.2
2020-Aug-07 04:29 293 17.2
2020-Aug-07 04:19 293 17.8
2020-Aug-07 04:09 293 17.8
2020-Aug-07 03:59 293 17.8
2020-Aug-07 03:49 293 17.8
2020-Aug-07 03:39 293 17.8
2020-Aug-07 03:29 293 17.8
2020-Aug-07 03:19 293 18.3
2020-Aug-07 03:09 293 18.3
2020-Aug-07 02:59 293 18.3
2020-Aug-07 02:49 293 18.3
2020-Aug-07 02:39 293 18.9
2020-Aug-07 02:29 293 18.9
2020-Aug-07 02:19 293 18.9
2020-Aug-07 02:09 293 19.4
2020-Aug-07 01:59 293 19.4
2020-Aug-07 01:49 293 20.0
2020-Aug-07 01:39 293 20.0
2020-Aug-07 01:29 293 20.6
2020-Aug-07 01:19 293 20.6
2020-Aug-07 01:09 293 21.1
2020-Aug-07 00:59 293 21.1
2020-Aug-07 00:49 293 21.7
2020-Aug-07 00:39 293 22.2
2020-Aug-07 00:29 293 22.8
2020-Aug-07 00:19 293 23.3
2020-Aug-07 00:09 293 23.3
2020-Aug-06 23:59 293 23.9
2020-Aug-06 23:49 303 24.4
2020-Aug-06 23:39 249 24.4
2020-Aug-06 23:29 268 0 gusting 6 25.0
2020-Aug-06 23:19 161 1 gusting 4 25.0
2020-Aug-06 23:09 256 0 gusting 5 25.6
2020-Aug-06 22:59 233 4 gusting 5 25.6
2020-Aug-06 22:49 229 1 gusting 4 26.1
2020-Aug-06 22:39 079 26.1
2020-Aug-06 22:29 229 0 gusting 6 26.1
2020-Aug-06 22:19 162 1 gusting 5 26.7
2020-Aug-06 22:09 218 26.7
2020-Aug-06 21:59 184 0 gusting 8 26.7
2020-Aug-06 21:49 236 3 gusting 6 26.7
2020-Aug-06 21:39 237 5 gusting 6 27.2
2020-Aug-06 21:29 238 0 gusting 4 27.2
2020-Aug-06 21:19 322 1 gusting 7 27.8
2020-Aug-06 21:09 223 0 gusting 6 28.3
2020-Aug-06 20:59 211 1 gusting 6 27.8
2020-Aug-06 20:49 277 0 gusting 7 27.8
2020-Aug-06 20:39 203 7 gusting 9 27.8
2020-Aug-06 20:29 188 9 gusting 12 27.8
2020-Aug-06 20:19 225 0 gusting 6 28.3
2020-Aug-06 20:09 078 1 gusting 7 28.3
2020-Aug-06 19:59 229 1 gusting 6 27.8
2020-Aug-06 19:49 180 0 gusting 5 27.8
2020-Aug-06 19:39 305 2 gusting 7 27.8
2020-Aug-06 19:29 238 1 gusting 6 28.3
2020-Aug-06 19:19 263 2 gusting 6 28.3
2020-Aug-06 19:09 247 28.9
2020-Aug-06 18:59 306 2 gusting 6 28.9
2020-Aug-06 18:49 170 2 gusting 5 29.4
2020-Aug-06 18:39 157 1 gusting 5 29.4
2020-Aug-06 18:29 193 1 gusting 5 28.9
2020-Aug-06 18:19 176 1 gusting 3 28.9
2020-Aug-06 18:09 216 0 gusting 5 28.9
2020-Aug-06 17:59 260 0 gusting 4 29.4
2020-Aug-06 17:49 181 0 gusting 2 29.4
2020-Aug-06 17:39 316 29.4
2020-Aug-06 17:29 221 1 gusting 3 29.4
2020-Aug-06 17:19 169 28.9
2020-Aug-06 17:09 301 1 gusting 4 29.4
2020-Aug-06 16:59 202 3 gusting 6 30.0
2020-Aug-06 16:49 303 0 gusting 3 29.4
2020-Aug-06 16:39 249 29.4
2020-Aug-06 16:29 109 28.9
2020-Aug-06 16:19 260 3 gusting 3 28.9
2020-Aug-06 16:09 161 1 gusting 5 28.3
2020-Aug-06 15:59 250 2 gusting 5 28.3
2020-Aug-06 15:49 133 2 gusting 4 28.3
2020-Aug-06 15:39 158 0 gusting 3 28.3
2020-Aug-06 15:29 237 2 gusting 6 28.3
2020-Aug-06 15:19 268 1 gusting 4 28.3
2020-Aug-06 15:09 318 0 gusting 1 27.8
2020-Aug-06 14:59 211 0 gusting 2 27.8
2020-Aug-06 14:49 147 1 gusting 2 27.8
2020-Aug-06 14:39 144 0 gusting 1 27.8
2020-Aug-06 14:29 332 27.2
2020-Aug-06 14:19 175 0 gusting 2 26.7
2020-Aug-06 14:09 170 26.7
2020-Aug-06 13:59 323 0 gusting 1 26.7
2020-Aug-06 13:49 219 0 gusting 1 26.1
2020-Aug-06 13:39 226 25.6
2020-Aug-06 13:29 217 25.0
2020-Aug-06 13:19 280 24.4
2020-Aug-06 13:09 312 23.3
2020-Aug-06 12:59 315 22.8
2020-Aug-06 12:49 313 22.2
2020-Aug-06 12:39 211 22.2
2020-Aug-06 12:29 211 21.7
2020-Aug-06 12:19 259 21.1
2020-Aug-06 12:09 278 20.6
2020-Aug-06 11:59 278 20.0
2020-Aug-06 11:49 278 19.4
2020-Aug-06 11:39 278 18.9
2020-Aug-06 11:29 277 17.8
2020-Aug-06 11:19 278 17.8
2020-Aug-06 11:09 278 17.2
2020-Aug-06 10:59 278 17.2
2020-Aug-06 10:49 278 16.7
2020-Aug-06 10:39 278 16.7
2020-Aug-06 10:29 278 16.7
2020-Aug-06 10:19 278 16.7
2020-Aug-06 10:09 278 16.7
2020-Aug-06 09:59 278 16.7
2020-Aug-06 09:49 278 16.7
2020-Aug-06 09:39 278 16.7
2020-Aug-06 09:29 278 17.2
2020-Aug-06 09:19 278 17.2
2020-Aug-06 09:09 278 17.2
2020-Aug-06 08:59 278 17.2
2020-Aug-06 08:49 278 17.8
2020-Aug-06 08:39 278 17.8
2020-Aug-06 08:29 278 17.8
2020-Aug-06 08:19 278 17.8
2020-Aug-06 08:09 278 17.8
2020-Aug-06 07:59 278 17.2
2020-Aug-06 07:49 278 17.2
2020-Aug-06 07:39 278 17.2
2020-Aug-06 07:29 278 17.2
2020-Aug-06 07:19 278 17.2
2020-Aug-06 07:09 278 17.2
2020-Aug-06 06:59 278 17.2
2020-Aug-06 06:49 278 17.8
2020-Aug-06 06:39 278 17.8
2020-Aug-06 06:29 278 17.8
2020-Aug-06 06:19 277 17.8
2020-Aug-06 06:09 278 17.8
2020-Aug-06 05:59 278 17.8
2020-Aug-06 05:49 278 18.3
2020-Aug-06 05:39 278 18.3
2020-Aug-06 05:29 278 18.3
2020-Aug-06 05:19 278 18.9
2020-Aug-06 05:09 278 19.4